Temperature
20 20 21 21 21 20 19 18 17 18 17 18 17 17 18 19 19 19 19 18 18 17 16 15 14 14 13 12 12 11 11 10 10 9 9 9 9 9 8 8 8 8 8 8
21 22 21 21 22 21 21 19 18 19 18 17 17 18 18 18 19 19 19 18 18 17 16 15 14 13 13 12 11 11 10 10 10 9 9 9 9 8 8 8 8 8 8 8
19 20 21 21 21 22 21 20 19 19 19 18 17 17 18 19 19 19 19 18 17 17 16 15 14 13 12 12 11 10 10 10 9 9 9 9 8 8 8 8 8 8 8 8
18 20 21 20 20 21 21 20 18 18 18 16 18 20 20 20 20 19 19 18 17 16 15 14 13 13 12 11 11 10 10 10 9 9 9 9 8 8 8 8 8 8 8 8
16 19 20 20 21 20 20 20 19 18 18 17 17 18 19 20 20 19 19 18 17 16 15 14 13 12 12 11 10 10 10 10 9 9 9 9 9 8 8 8 8 8 8 8
16 19 20 20 21 21 20 20 19 18 16 16 16 15 17 21 20 19 18 18 17 16 15 14 13 12 12 11 10 10 10 9 9 9 9 9 8 8 8 8 8 8 8 8
16 18 18 19 20 21 20 19 21 20 19 18 17 19 21 21 20 19 18 17 16 15 15 14 13 12 12 11 11 10 10 10 9 9 9 8 8 8 8 8 8 8 8 8
15 18 19 20 19 19 20 22 23 22 22 21 22 22 21 20 20 19 18 17 16 15 15 14 13 12 12 11 11 10 10 10 9 9 9 8 8 8 8 8 8 8 8 8
16 18 19 20 21 23 23 23 23 23 23 22 22 21 21 20 19 19 18 17 16 15 14 14 13 12 12 11 11 10 10 10 9 9 9 8 8 8 8 8 8 8 8 8
16 17 19 21 22 23 23 23 24 24 23 22 21 21 21 20 19 18 18 17 16 15 14 14 13 12 12 11 11 10 10 10 9 9 9 9 9 8 8 8 8 8 8 8
17 17 19 22 23 23 23 23 23 23 23 22 22 21 21 20 19 19 18 17 16 15 15 14 13 13 12 11 11 10 10 10 9 9 9 9 9 9 9 8 8 8 8 8
17 19 17 20 22 22 22 23 23 23 22 22 21 21 20 20 19 18 18 17 16 15 14 14 13 13 12 11 11 10 10 10 10 9 9 9 9 9 9 9 8 8 8 8
18 19 19 19 20 21 21 22 22 22 22 22 21 21 20 19 19 18 17 16 16 15 14 14 13 13 12 11 11 10 10 10 9 9 9 9 9 9 9 9 9 9 8 8
17 18 17 18 18 20 20 21 21 21 20 20 20 20 19 19 18 18 17 16 15 15 14 14 13 13 12 11 11 11 10 10 9 9 9 9 9 9 9 9 9 9 9 8
16 16 16 16 17 18 19 19 19 19 19 19 18 18 18 18 17 17 17 16 15 15 14 13 13 13 12 11 11 11 10 10 10 9 9 9 9 9 9 9 9 9 9 9
15 16 16 16 16 16 17 17 17 17 17 17 17 17 17 17 17 16 16 15 15 15 14 14 13 12 12 11 11 11 10 10 10 9 9 9 9 9 9 9 9 9 9 8
14 14 14 14 14 15 15 15 16 16 16 17 16 16 16 16 16 16 16 15 15 14 14 13 13 12 12 11 11 11 10 10 10 9 9 9 10 10 9 9 9 9 9 9
13 13 13 13 13 14 14 14 15 15 15 15 15 16 15 15 15 15 15 14 14 14 14 13 13 12 12 11 11 10 10 10 10 9 9 9 9 10 10 9 9 9 9 9
13 13 13 13 13 13 13 13 14 14 14 14 14 14 14 14 14 14 14 14 14 14 14 13 13 12 11 11 11 10 10 9 9 9 9 9 9 10 10 9 9 9 9 8
12 12 12 13 13 13 12 12 13 13 13 13 13 13 13 13 13 13 13 13 13 13 13 13 12 12 11 11 10 10 9 9 9 9 9 9 9 9 10 9 9 9 9 8
12 12 12 12 12 12 12 12 12 12 12 12 12 12 12 12 12 12 12 13 13 13 13 12 12 11 11 10 10 9 9 9 9 9 9 9 9 9 9 9 9 9 9 9
11 11 11 11 11 11 11 11 11 11 11 11 11 11 11 11 12 12 12 12 12 12 12 12 11 11 10 10 10 9 9 9 9 9 9 9 9 9 9 9 9 9 9 9
11 11 11 11 10 10 10 10 10 10 10 10 10 10 10 10 11 11 11 11 12 12 11 11 11 10 10 9 9 9 8 8 8 8 8 9 9 9 9 9 9 9 9 9
10 10 10 10 10 10 10 10 10 10 10 10 10 10 10 10 10 10 10 11 11 11 11 10 10 10 9 9 8 8 8 8 8 8 8 8 8 9 9 9 9 9 9 9
10 10 10 10 10 10 9 9 9 9 9 9 9 9 9 9 9 9 10 10 10 10 10 10 9 9 9 8 8 8 8 7 7 8 8 8 8 8 8 9 9 9 9 9
9 9 9 9 9 9 9 9 9 9 9 9 9 9 9 9 9 9 9 9 9 9 9 9 9 8 8 8 7 7 7 7 7 7 7 8 8 8 8 8 8 9 9 9
9 9 9 9 9 9 9 9 9 9 8 8 8 8 8 8 8 8 8 8 8 8 8 8 8 7 7 7 7 7 6 6 7 7 7 7 7 8 8 8 8 8 8 8
Wind_Speed
6 6 4 5 6 7 7 8 9 8 8 10 9 8 6 5 5 5 5 5 6 6 6 5 6 6 6 6 6 5 5 6 7 8 7 7 8 8 8 8 9 9 9 10
3 3 3 5 6 5 5 5 6 4 8 7 4 4 4 6 7 7 8 8 8 8 7 7 7 7 6 7 6 5 6 8 8 8 8 8 8 8 8 9 9 9 10 11
4 5 3 5 5 5 5 5 7 8 8 3 5 8 9 9 9 9 10 9 9 8 8 8 8 7 7 7 6 6 7 8 8 8 8 9 9 9 9 9 9 10 10 11
2 2 4 8 4 5 4 5 6 6 5 7 8 6 5 8 10 10 10 9 9 8 7 7 6 6 6 6 6 6 7 8 8 8 9 9 9 10 10 9 9 10 11 11
4 3 6 8 4 6 6 6 6 7 6 4 4 4 4 8 10 11 10 9 8 8 7 6 7 6 5 6 6 7 8 9 9 8 9 9 10 10 10 9 10 10 10 11
5 5 6 9 4 5 5 5 7 9 9 8 8 3 7 9 10 10 9 7 7 6 5 6 6 4 5 6 7 8 9 9 9 8 9 10 10 10 9 9 10 10 11 11
5 5 8 8 3 7 4 9 7 10 10 11 11 10 6 5 8 9 9 8 7 6 6 7 5 4 6 7 8 9 8 8 9 9 9 10 10 9 9 9 10 10 11 11
5 3 7 4 8 9 10 4 6 10 11 12 13 9 6 6 8 9 8 7 7 6 7 6 5 5 7 8 9 7 7 8 9 9 9 8 8 9 9 9 9 10 9 10
8 7 6 5 8 7 4 5 6 9 11 13 11 9 9 8 9 8 8 8 6 7 7 7 6 7 8 8 7 6 7 8 9 9 9 8 8 9 9 8 7 8 8 8
4 8 6 6 6 5 6 7 7 9 10 11 11 11 10 9 8 8 8 7 6 6 7 7 7 7 8 8 6 6 7 9 8 9 9 9 7 7 7 8 8 8 8 8
5 8 8 7 5 5 5 5 4 5 7 11 12 10 10 9 9 9 8 7 6 7 8 9 7 7 7 7 5 6 7 8 8 8 8 9 9 7 8 9 9 9 8 8
6 7 4 7 8 5 3 5 6 6 6 6 9 10 9 9 9 8 8 6 6 7 8 8 7 7 7 6 5 5 7 8 7 7 7 8 9 10 10 11 13 14 14 12
6 5 3 6 7 6 4 5 5 6 7 7 7 7 8 7 6 6 6 6 8 9 8 7 7 8 8 6 5 6 7 8 7 7 8 8 8 8 10 10 10 11 11 12
6 3 4 6 6 8 6 5 4 3 3 2 2 3 4 4 4 6 8 9 8 7 7 7 7 9 8 5 5 6 7 8 8 7 8 8 8 8 8 9 10 8 7 9
10 6 3 5 9 11 10 10 10 9 7 5 2 1 3 4 6 7 7 6 5 6 7 7 8 10 7 5 6 7 6 6 7 7 7 8 8 8 8 8 8 8 8 7
7 10 11 12 13 12 12 12 10 9 7 5 3 3 3 5 5 6 6 6 6 8 9 8 9 9 6 5 6 6 6 9 8 7 7 7 7 7 7 7 7 7 7 7
13 13 12 12 12 11 10 8 7 7 7 6 6 4 3 3 4 6 7 7 8 9 8 8 9 7 5 5 6 5 6 7 9 7 6 7 7 7 7 7 7 7 7 7
7 7 7 7 8 9 11 10 10 9 7 7 6 4 3 4 6 8 7 6 6 8 9 9 8 6 6 6 5 5 5 5 5 6 6 7 7 6 6 6 7 7 7 6
9 9 9 9 9 8 9 9 9 8 8 7 7 6 6 6 7 7 6 6 8 10 9 7 8 6 6 6 5 4 4 5 6 6 6 8 7 6 6 6 6 6 6 6
8 8 8 9 9 8 8 8 8 8 8 8 8 8 8 9 8 8 7 8 9 8 6 5 5 5 5 5 5 3 4 5 5 6 6 6 6 6 6 6 5 6 5 5
7 8 8 8 8 8 7 7 7 8 9 8 7 8 9 10 9 7 7 9 9 7 7 8 6 5 4 4 4 3 4 4 4 5 5 5 6 6 6 5 5 5 5 5
6 7 8 7 7 7 7 6 6 7 8 8 8 9 9 10 11 10 9 9 10 8 6 5 5 5 5 4 3 3 3 3 4 4 4 5 5 5 5 5 5 5 5 5
6 6 7 7 7 7 7 6 6 6 7 8 8 9 9 9 8 8 10 9 8 8 5 4 5 6 5 3 2 2 2 3 3 4 4 4 5 5 5 5 4 5 5 5
7 7 7 7 5 5 6 7 7 6 7 7 8 8 8 8 8 7 7 10 10 8 4 4 5 5 3 1 1 1 2 2 3 3 4 4 4 4 4 4 5 4 5 6
7 7 7 7 6 5 6 7 7 7 7 7 9 10 8 6 6 9 9 9 8 5 3 2 4 4 3 1 1 1 1 2 3 3 3 3 4 4 4 4 5 4 5 5
7 7 7 7 6 6 5 5 5 6 6 7 8 8 8 8 8 8 7 6 5 3 1 1 2 2 1 1 1 1 1 2 3 3 3 3 4 4 4 4 5 5 4 5
7 6 5 6 6 6 5 5 6 7 6 7 8 8 9 9 8 8 7 5 3 2 1 1 1 1 2 2 2 2 2 2 3 3 3 4 4 4 4 5 4 4 4 5
Wind_Direction
235 246 243 249 246 187 191 190 188 226 225 241 224 213 208 188 171 177 201 218 229 237 250 261 269 271 267 270 276 281 282 280 276 278 280 282 282 282 281 278 278 275 277 277
285 283 274 263 257 211 206 191 209 237 252 247 208 162 178 182 182 201 221 232 239 244 249 254 256 259 262 267 273 278 276 277 280 283 285 285 284 284 283 282 281 279 276 276
258 308 2 287 243 204 211 201 179 207 236 191 177 196 204 198 198 210 224 232 238 241 241 245 248 247 251 260 274 279 277 281 284 285 286 286 288 289 286 284 282 282 279 276
169 57 250 251 258 204 202 230 209 223 231 199 202 208 211 197 198 215 225 232 237 237 241 246 247 250 255 268 275 278 282 285 286 286 286 288 289 287 285 283 282 282 282 279
135 186 274 293 241 168 171 253 218 209 213 174 105 65 296 224 207 214 221 224 228 229 230 240 250 253 261 274 279 282 281 283 284 285 287 289 289 288 286 285 286 283 281 280
137 162 228 250 243 154 110 282 229 191 189 162 128 164 252 231 208 220 227 225 226 228 227 243 251 242 247 265 274 275 275 279 283 284 283 285 285 286 286 284 284 286 284 281
164 202 253 252 173 129 159 245 218 189 186 171 183 205 228 209 200 209 217 222 219 217 227 240 243 228 247 262 266 267 273 281 286 285 283 281 282 283 287 289 289 287 286 285
149 184 258 227 145 178 215 233 193 191 188 190 212 223 233 217 209 209 216 220 212 214 234 243 234 224 248 259 262 271 277 283 287 289 288 289 286 291 291 288 291 291 290 292
189 215 246 223 214 234 199 209 208 197 202 201 210 221 222 220 216 215 215 218 213 214 234 247 235 219 239 256 267 276 284 288 292 295 293 289 287 291 296 291 288 289 288 290
254 274 271 268 260 255 218 221 222 205 200 191 204 214 213 214 213 215 217 217 213 213 231 247 244 233 237 255 267 272 281 290 295 299 300 300 292 285 286 287 287 287 287 287
270 283 306 314 283 263 251 245 243 221 201 199 203 210 205 207 210 212 213 214 207 213 229 244 249 249 251 254 257 269 280 288 295 294 295 300 298 288 280 273 265 270 279 276
245 258 237 279 302 307 263 248 232 215 218 212 203 211 204 206 208 207 212 210 215 225 235 246 249 255 260 256 247 260 281 290 293 297 299 299 302 306 284 267 272 262 255 257
258 285 258 283 323 334 296 279 260 220 219 220 213 203 196 204 206 205 215 215 222 229 235 243 249 258 261 255 245 250 267 282 291 293 296 298 301 304 309 309 292 279 270 265
318 320 357 351 336 344 350 349 4 349 314 290 224 187 185 194 193 206 221 225 227 233 241 244 253 260 261 252 248 258 268 279 283 286 290 293 296 297 295 299 307 309 296 280
13 38 43 4 15 20 23 30 33 19 7 4 19 178 189 199 217 229 235 230 223 236 246 246 251 261 260 243 248 261 272 281 285 287 288 289 292 294 294 294 293 297 303 303
13 35 34 31 25 20 24 28 23 6 2 354 341 294 247 227 232 241 237 218 216 237 244 243 249 256 253 242 253 264 271 282 290 291 294 297 298 298 299 299 299 300 301 301
42 30 19 18 16 14 13 8 1 356 357 350 332 315 295 272 268 263 254 237 233 244 248 242 249 254 245 242 248 262 275 288 297 298 294 295 297 299 299 299 300 302 299 293
53 43 32 22 14 10 5 3 0 357 350 341 341 340 321 283 266 266 267 261 258 263 257 246 244 247 246 245 245 254 269 282 291 293 297 299 299 297 297 300 305 307 307 308
31 27 20 17 13 12 5 357 350 347 344 349 348 330 306 290 281 281 279 266 260 265 266 250 237 233 244 246 244 247 265 281 290 294 298 300 302 303 303 306 311 314 313 315
18 13 11 7 7 4 354 348 346 347 345 344 343 335 323 311 302 292 280 267 259 254 256 245 227 226 236 245 246 249 263 275 287 297 304 306 306 309 311 314 319 318 320 322
360 357 356 352 347 345 343 341 342 337 333 336 335 322 312 307 304 295 285 284 278 260 249 237 224 223 224 232 247 253 265 276 287 296 303 305 310 312 316 321 324 323 326 330
339 337 334 332 333 330 327 327 328 328 330 333 332 329 325 320 316 308 286 272 279 271 252 234 224 219 216 222 235 252 267 279 290 299 305 308 312 315 317 322 326 328 330 334
311 308 311 312 308 303 310 318 324 325 325 323 321 320 315 308 306 303 305 299 297 279 260 239 221 213 209 208 232 254 275 291 301 307 309 310 314 318 320 321 328 334 334 337
304 302 301 299 297 305 311 309 313 312 309 305 304 304 305 309 311 301 292 300 299 282 266 239 214 202 182 191 222 256 285 302 311 315 319 322 329 334 338 338 337 340 341 343
293 293 295 298 296 288 283 291 302 305 310 311 310 310 307 292 289 302 307 308 304 289 277 221 189 173 160 164 210 275 315 323 325 326 333 338 344 346 354 354 349 347 351 354
286 285 279 271 265 267 272 278 282 288 295 303 307 307 310 310 308 309 309 309 306 293 276 176 153 146 141 135 113 34 354 344 343 348 350 346 345 347 353 356 355 360 1 2
284 280 279 285 282 269 265 265 270 278 280 285 294 300 306 311 313 315 314 314 314 312 351 91 114 113 105 94 77 45 18 3 357 354 353 353 349 347 351 356 359 2 6 8
Height
1499 1495 1495 1495 1493 1497 1501 1505 1512 1505 1504 1493 1490 1490 1491 1493 1496 1498 1499 1501 1501 1502 1501 1500 1499 1497 1495 1493 1491 1489 1486 1483 1481 1478 1475 1473 1470 1467 1464 1462 1459 1457 1454 1452
1497 1492 1493 1493 1489 1490 1492 1495 1498 1497 1496 1486 1486 1488 1490 1492 1494 1496 1497 1498 1499 1499 1498 1497 1496 1494 1492 1490 1488 1485 1482 1479 1477 1474 1471 1468 1465 1461 1458 1456 1453 1451 1448 1446
1505 1497 1493 1499 1488 1486 1487 1487 1491 1495 1489 1484 1486 1486 1487 1489 1491 1493 1495 1495 1496 1495 1495 1493 1492 1490 1488 1486 1484 1481 1478 1475 1472 1469 1466 1463 1459 1456 1453 1451 1448 1445 1442 1440
1507 1501 1508 1495 1481 1480 1483 1483 1483 1483 1482 1482 1482 1484 1486 1487 1489 1490 1492 1492 1492 1492 1491 1490 1488 1486 1485 1482 1480 1477 1474 1471 1468 1465 1461 1458 1455 1452 1449 1446 1442 1439 1436 1433
1510 1509 1502 1488 1478 1479 1483 1483 1478 1479 1479 1481 1482 1484 1484 1485 1486 1487 1488 1489 1489 1488 1487 1486 1485 1483 1481 1479 1477 1474 1470 1467 1464 1460 1456 1453 1450 1447 1444 1440 1437 1434 1430 1427
1507 1507 1508 1488 1474 1474 1480 1485 1474 1475 1477 1479 1482 1489 1484 1481 1482 1484 1485 1485 1485 1484 1483 1482 1481 1479 1477 1475 1472 1469 1466 1463 1459 1456 1452 1448 1445 1442 1439 1435 1431 1428 1425 1421
1504 1503 1495 1475 1472 1475 1490 1486 1468 1470 1472 1475 1477 1477 1477 1477 1478 1480 1481 1481 1481 1480 1480 1479 1477 1475 1473 1471 1468 1465 1462 1458 1455 1451 1448 1444 1441 1437 1434 1430 1427 1423 1419 1416
1503 1502 1495 1470 1472 1476 1473 1464 1464 1466 1468 1469 1470 1472 1474 1474 1475 1476 1477 1477 1477 1477 1476 1475 1473 1471 1469 1466 1464 1461 1457 1454 1451 1447 1444 1440 1436 1433 1429 1426 1422 1418 1414 1410
1487 1484 1470 1467 1465 1464 1464 1463 1462 1463 1464 1466 1467 1468 1470 1471 1472 1473 1473 1474 1474 1473 1472 1471 1469 1467 1464 1462 1459 1456 1453 1450 1447 1443 1440 1436 1432 1428 1425 1421 1417 1413 1409 1405
1479 1470 1465 1464 1462 1461 1461 1460 1460 1460 1461 1462 1463 1464 1466 1467 1468 1469 1469 1470 1470 1469 1468 1466 1465 1463 1460 1458 1455 1452 1449 1446 1442 1439 1435 1432 1428 1424 1420 1416 1413 1409 1405 1401
1475 1468 1463 1461 1460 1459 1458 1458 1457 1458 1458 1459 1459 1460 1461 1463 1464 1465 1466 1466 1466 1465 1464 1463 1461 1459 1457 1454 1451 1448 1445 1442 1438 1435 1431 1427 1424 1420 1416 1412 1409 1405 1401 1397
1473 1466 1465 1462 1460 1458 1456 1455 1455 1455 1455 1455 1456 1456 1458 1459 1460 1462 1462 1463 1462 1462 1461 1459 1457 1455 1453 1451 1448 1444 1441 1437 1434 1431 1427 1424 1420 1416 1412 1409 1405 1401 1397 1393
1467 1464 1463 1461 1458 1456 1454 1453 1452 1452 1452 1452 1452 1453 1454 1456 1458 1459 1460 1460 1459 1458 1457 1456 1454 1452 1449 1447 1444 1440 1437 1434 1430 1427 1424 1420 1416 1412 1408 1404 1401 1398 1394 1390
1463 1461 1460 1459 1457 1454 1452 1451 1450 1450 1450 1451 1451 1451 1453 1454 1455 1456 1457 1456 1456 1455 1454 1452 1450 1448 1445 1443 1440 1436 1433 1430 1427 1423 1420 1417 1413 1409 1405 1400 1396 1393 1390 1386
1464 1462 1462 1460 1457 1454 1452 1450 1449 1449 1449 1449 1449 1450 1451 1452 1452 1453 1454 1453 1452 1451 1449 1447 1445 1443 1441 1438 1435 1432 1429 1426 1423 1420 1417 1414 1410 1407 1403 1398 1394 1390 1386 1382
1467 1464 1461 1459 1457 1455 1453 1451 1451 1451 1450 1449 1449 1449 1449 1449 1449 1449 1449 1449 1448 1446 1445 1443 1441 1439 1436 1434 1431 1428 1425 1422 1419 1416 1413 1411 1407 1404 1400 1395 1391 1387 1383 1379
1466 1465 1463 1461 1460 1458 1456 1455 1454 1452 1451 1449 1448 1448 1448 1447 1446 1445 1444 1444 1443 1441 1440 1438 1436 1434 1431 1429 1426 1424 1421 1418 1416 1413 1410 1407 1404 1401 1397 1393 1388 1384 1381 1377
1473 1471 1469 1467 1464 1461 1459 1457 1455 1453 1451 1449 1448 1446 1445 1443 1442 1441 1440 1439 1437 1436 1434 1432 1431 1429 1426 1424 1422 1419 1417 1415 1412 1410 1407 1404 1401 1398 1394 1390 1386 1382 1379 1375
1474 1472 1470 1468 1466 1463 1461 1458 1456 1454 1451 1449 1447 1445 1443 1441 1439 1438 1436 1434 1431 1429 1428 1427 1425 1423 1421 1419 1417 1415 1413 1411 1409 1406 1404 1401 1398 1395 1392 1389 1385 1381 1377 1373
1475 1473 1471 1469 1466 1463 1461 1458 1456 1453 1451 1448 1445 1442 1440 1438 1436 1433 1430 1428 1426 1424 1422 1420 1419 1418 1416 1414 1412 1410 1409 1407 1405 1403 1401 1398 1396 1393 1390 1387 1383 1379 1376 1372
1474 1472 1469 1467 1465 1463 1460 1458 1455 1452 1450 1447 1444 1440 1437 1434 1432 1428 1425 1421 1420 1418 1416 1414 1413 1412 1411 1409 1408 1406 1404 1403 1401 1400 1398 1395 1393 1391 1388 1385 1382 1379 1375 1371
1473 1470 1468 1465 1463 1461 1458 1456 1453 1451 1448 1445 1442 1438 1434 1431 1427 1423 1420 1417 1413 1411 1409 1407 1407 1406 1406 1404 1403 1402 1401 1399 1398 1396 1395 1393 1391 1389 1386 1383 1381 1378 1375 1371
1471 1468 1466 1463 1461 1458 1456 1453 1451 1448 1445 1442 1439 1435 1431 1427 1424 1419 1414 1411 1408 1405 1403 1402 1402 1401 1401 1400 1399 1398 1397 1396 1395 1393 1392 1390 1389 1387 1384 1382 1380 1377 1374 1371
1468 1465 1463 1460 1457 1455 1452 1450 1448 1445 1442 1439 1436 1432 1428 1423 1418 1415 1411 1406 1403 1400 1398 1398 1397 1397 1397 1396 1395 1395 1394 1392 1391 1390 1389 1388 1386 1385 1383 1381 1379 1377 1374 1372
1464 1461 1459 1456 1454 1451 1449 1447 1445 1442 1439 1435 1432 1428 1424 1419 1415 1410 1406 1402 1398 1396 1394 1393 1393 1393 1393 1392 1392 1391 1390 1389 1388 1387 1386 1385 1384 1383 1382 1380 1378 1377 1375 1372
1459 1457 1454 1452 1450 1447 1445 1443 1440 1437 1434 1431 1427 1423 1419 1415 1410 1405 1401 1397 1394 1392 1390 1390 1389 1389 1389 1389 1388 1388 1387 1386 1385 1385 1384 1383 1382 1381 1380 1379 1378 1376 1375 1373
1454 1452 1449 1447 1445 1443 1440 1438 1435 1433 1430 1426 1422 1419 1415 1410 1405 1401 1397 1393 1391 1389 1387 1387 1386 1386 1386 1385 1385 1385 1384 1383 1383 1382 1382 1381 1380 1380 1379 1379 1378 1377 1375 1374